This is the latest recevied weather packets stored in our database for station/object KD8OZS. If no packets are shown the sender has not sent any weather packets the latest 10 day(s).
| Time | Temp. | Humidity | Pressure | Rain* | Wind** | Luminosity | Snow |
|---|---|---|---|---|---|---|---|
| 1777739062 | 5.56° C | 74% | 1010.2 hPa | 0 mm | - | 120 W/m² | - |
| 1777738759 | 5.56° C | 73% | 1010.1 hPa | 0 mm | - | 140 W/m² | - |
| 1777738455 | 6.11° C | 75% | 1010.2 hPa | 0 mm | - | 198 W/m² | - |
| 1777738153 | 6.11° C | 77% | 1010 hPa | 0 mm | - | 274 W/m² | - |
| 1777737851 | 6.11° C | 76% | 1010.1 hPa | 0 mm | - | 181 W/m² | - |
| 1777737550 | 6.11° C | 75% | 1010 hPa | 0 mm | - | 186 W/m² | - |
| 1777737248 | 6.67° C | 78% | 1010 hPa | 0 mm | - | 350 W/m² | - |
| 1777736943 | 6.11° C | 81% | 1010 hPa | 0 mm | - | 290 W/m² | - |
| 1777736037 | 5° C | 84% | 1010 hPa | 0 mm | - | 237 W/m² | - |
| 1777735734 | 5° C | 84% | 1009.8 hPa | 0 mm | - | 241 W/m² | - |
| 1777735432 | 4.44° C | 84% | 1010 hPa | 0 mm | - | 158 W/m² | - |
| 1777735130 | 5° C | 83% | 1009.8 hPa | 0 mm | - | 167 W/m² | - |
| 1777734826 | 5° C | 84% | 1009.7 hPa | 0 mm | - | 155 W/m² | - |
| 1777734523 | 5° C | 85% | 1009.9 hPa | 0 mm | - | 194 W/m² | - |
| 1777734220 | 5° C | 86% | 1009.9 hPa | 0 mm | - | 270 W/m² | - |
| 1777733916 | 3.89° C | 87% | 1009.9 hPa | 0 mm | - | 329 W/m² | - |
| 1777733613 | 3.89° C | 88% | 1010 hPa | 0 mm | - | 271 W/m² | - |
| 1777733309 | 3.89° C | 87% | 1009.8 hPa | 0 mm | - | 154 W/m² | - |
| 1777733006 | 3.89° C | 87% | 1010 hPa | 0 mm | - | 96 W/m² | - |
| 1777732702 | 3.89° C | 87% | 1009.8 hPa | 0 mm | - | 75 W/m² | - |
| 1777732399 | 4.44° C | 86% | 1009.8 hPa | 0 mm | - | 71 W/m² | - |
| 1777732097 | 4.44° C | 87% | 1009.9 hPa | 0 mm | - | 69 W/m² | - |
| 1777731794 | 3.89° C | 87% | 1009.8 hPa | 0 mm | - | 133 W/m² | - |
| 1777731491 | 3.89° C | 88% | 1009.7 hPa | 0 mm | - | 159 W/m² | - |
| 1777731189 | 3.89° C | 88% | 1009.8 hPa | 0 mm | - | 96 W/m² | - |
* Rain latest hour (hover to see other rain measurements)
** Current wind speed in m/s (hover to see current wind gust speed)